Погода в Аксае

Казахстан     51°09′55″N   53°01′18″E
темп.,
°C
ветер,
м/с
пор.,
м/с
влажн.,
%
обл.,
%
осадки,
мм/ч
давл.,
гПа
погр.,
м
5 августа, чт
чт523:00+31зюз592089 0.0 1009122
02:00+26ссз3435100 0.0 101047
05:00+26ссз6115246 0.0 1011330
08:00+26ссв584973 0.0 1011301
11:00+30сз443593 0.0 10111071
14:00+32сз443497 0.0 10101710
17:00+33зсз662916 0.0 10102452
20:00+30сз6827100 0.0 1010811
6 августа, пт
пт623:00+26сз61235100 0.0 1011315
02:00+24с61242100 0.0 1012484
05:00+21ссз61147100 0.0 1012290
08:00+22с6104518 0.0 1013402
11:00+28с66340 0.0 10131606
14:00+31с662210 0.0 10132418
17:00+31с55205 0.0 10122680
20:00+30ссв57225 0.0 1012477
7 августа, сб
сб723:00+24св48315 0.0 1013114
02:00+21св4636100 0.0 101495
05:00+19в464448 0.0 101593
08:00+22всв46425 0.0 1016197
11:00+28всв45275 0.0 10161435
14:00+31всв45195 0.0 10152116
17:00+33всв44175 0.0 10152378
20:00+31в342017 0.0 1015114
8 августа, вс
вс823:00+25всв5112753 0.0 1016217
02:00+23в512305 0.0 1017202
05:00+21в41036100 0.0 1018166
08:00+23в5934100 0.0 1019257
11:00+30вюв56226 0.0 1018887
14:00+34юв44175 0.0 10171899
17:00+35ююв3416100 0.0 10162483
20:00+33вюв332177 0.0 101640
9 августа, пн
пн923:00+28юв51025100 0.0 1016149
02:00+28юв51126100 0.0 1016221
05:00+27ююв51231100 0.0 1016281
08:00+28ююв5113099 0.0 1016354
11:00+34ю6719100 0.0 1015862
14:00+37ююв5614100 0.0 10142634
17:00+37ююв5714100 0.0 10132225
20:00+34ююв3617100 0.0 1012130